Change the Weather History Date:

Monday, October 7, 2013

  Actual Average Record
Temperature  
Mean Temperature 78 °F -  
Max Temperature 82 °F 77 °F 87 °F (1990)
Min Temperature 75 °F 59 °F 44 °F (1980)
Cooling Degree Days 13    
Growing Degree Days 28 (Base 50)    
Moisture  
Dew Point 72 °F    
Average Humidity 85    
Maximum Humidity 94    
Minimum Humidity 72    
Precipitation  
Precipitation 0.03 in - - ()
Sea Level Pressure  
Sea Level Pressure 29.92 in    
Wind  
Wind Speed 10 mph (South)    
Max Wind Speed 14 mph    
Max Gust Speed 23 mph    
Visibility 10 miles    
Events Rain    
Averages and records for this station are not official NWS values.
T = Trace of Precipitation, MM = Missing Value Source: NWS Daily Summary

Daily Weather History Graph

Daily Weather History Graph

Search for Another Location

Airport or City:

Trip Planner

Search our weather history database for the weather conditions in past years. The results will help you decide how hot, cold, wet, or windy it might be!

Date:

Astronomy

Oct. 07, 2013 Rise Set
Actual Time 7:06 AM EDT 6:42 PM EDT
Civil Twilight 6:40 AM EDT 7:07 PM EDT
Nautical Twilight 6:11 AM EDT 7:36 PM EDT
Astronomical Twilight 5:42 AM EDT 8:05 PM EDT
Moon 9:46 AM EDT (10/7) 8:33 PM EDT (10/7)
Length of Visible Light 12h 26m
Length of Day
11h 36m
Waxing Crescent, 8% of the Moon is Illuminated
Oct 7
Waxing Crescent
Oct 11
First Quarter
Oct 18
Full
Oct 26
Last Quarter
Nov 3
New

Hourly Weather History & Observations

Time (EDT) Temp. Heat Index Dew Point Humidity Pressure Visibility Wind Dir Wind Speed Gust Speed Precip Events Conditions
12:58 AM 75.0 °F - 73.0 °F 94% 29.98 in 10.0 mi SSE 10.4 mph - N/A   Partly Cloudy
1:58 AM 75.0 °F - 73.0 °F 94% 29.98 in 10.0 mi South 9.2 mph - N/A   Overcast
2:58 AM 75.0 °F - 72.0 °F 90% 29.96 in 9.0 mi South 9.2 mph - 0.00 in Rain Light Rain
3:29 AM 75.2 °F - 71.6 °F 89% 29.95 in 9.0 mi SSE 9.2 mph - 0.00 in   Overcast
3:58 AM 75.9 °F - 72.0 °F 87% 29.94 in 10.0 mi South 11.5 mph - 0.00 in   Overcast
4:58 AM 75.0 °F - 72.0 °F 90% 29.95 in 10.0 mi South 8.1 mph - N/A   Partly Cloudy
5:58 AM 75.0 °F - 72.0 °F 90% 29.94 in 10.0 mi South 10.4 mph - N/A   Scattered Clouds
6:58 AM 75.0 °F - 71.1 °F 87% 29.94 in 10.0 mi South 10.4 mph - N/A   Clear
7:58 AM 75.9 °F - 71.1 °F 85% 29.94 in 9.0 mi South 10.4 mph - N/A   Clear
8:58 AM 78.1 °F - 72.0 °F 81% 29.95 in 10.0 mi SSE 12.7 mph 20.7 mph N/A   Scattered Clouds
9:58 AM 79.0 °F - 72.0 °F 79% 29.95 in 10.0 mi SSE 11.5 mph 19.6 mph N/A   Clear
10:58 AM 81.0 °F 85.2 °F 72.0 °F 74% 29.95 in 10.0 mi SSE 13.8 mph 23.0 mph N/A   Clear
11:58 AM 81.0 °F 85.2 °F 72.0 °F 74% 29.94 in 10.0 mi South 12.7 mph 21.9 mph N/A   Clear
12:58 PM 81.0 °F 84.9 °F 71.1 °F 72% 29.92 in 10.0 mi South 13.8 mph - N/A   Clear
1:23 PM 80.6 °F 85.4 °F 73.4 °F 79% 29.91 in 10.0 mi South 10.4 mph 17.3 mph N/A   Mostly Cloudy
1:46 PM 80.6 °F 85.4 °F 73.4 °F 79% 29.90 in 10.0 mi SSW 12.7 mph 19.6 mph N/A   Scattered Clouds
1:58 PM 81.0 °F 85.8 °F 73.0 °F 77% 29.90 in 10.0 mi South 12.7 mph - N/A   Scattered Clouds
2:07 PM 80.6 °F 85.4 °F 73.4 °F 79% 29.89 in 9.0 mi South 11.5 mph - N/A   Mostly Cloudy
2:19 PM 80.6 °F 85.4 °F 73.4 °F 79% 29.89 in 9.0 mi South 11.5 mph - N/A   Scattered Clouds
2:58 PM 79.0 °F - 71.1 °F 77% 29.89 in 10.0 mi South 10.4 mph - N/A   Scattered Clouds
3:58 PM 79.0 °F - 72.0 °F 79% 29.89 in 10.0 mi South 10.4 mph - N/A   Clear
4:58 PM 78.1 °F - 72.0 °F 81% 29.89 in 9.0 mi SSW 8.1 mph - N/A   Clear
5:58 PM 77.0 °F - 72.0 °F 84% 29.89 in 9.0 mi South 6.9 mph - N/A   Overcast
6:58 PM 75.9 °F - 73.0 °F 91% 29.88 in 10.0 mi SSE 4.6 mph - N/A   Mostly Cloudy
7:58 PM 75.9 °F - 73.0 °F 91% 29.90 in 9.0 mi South 6.9 mph - 0.00 in Rain Light Rain
8:58 PM 75.0 °F - 73.0 °F 94% 29.89 in 7.0 mi SSE 8.1 mph - 0.02 in Rain Light Rain
9:58 PM 75.0 °F - 73.0 °F 94% 29.91 in 10.0 mi SSE 9.2 mph - 0.01 in   Partly Cloudy
10:58 PM 75.0 °F - 73.0 °F 94% 29.92 in 10.0 mi North 4.6 mph - N/A   Overcast
11:58 PM 75.0 °F - 73.0 °F 94% 29.90 in 10.0 mi NE 6.9 mph - N/A   Overcast